Bookmark and Share
Track history (hours):
 

Barbara Foss

More information available from US FCC via Universal Licensing System and Coast Guard Vessel Documentation Center.

Last reported at 2014-Apr-21 01:33 UTC. Time now 2014-Apr-23 19:12 UTC.
Position N 58°15' W 136°04'.

Length 39 m; draft 5.5 m.

Type: Towing. MMSI: 366932130.

NotesDate/timePositionNaut miles runAvg speedWind from/ knotsBaromVisibWave heightAir tempDewpointWater temp
2014-Apr-21 01:33N 58°15' W 136°04'8 7.8
2014-Apr-21 00:33N 58°18' W 135°50'7 5.2
2014-Apr-20 23:15N 58°16' W 135°38'2 1.9
2014-Apr-20 22:23N 58°17' W 135°40'3 4.1
2014-Apr-20 21:32N 58°19' W 135°46'2 1.7
2014-Apr-20 20:33N 58°17' W 135°44'3 2.6
2014-Apr-20 19:31N 58°17' W 135°39'2 0.2
2014-Apr-20 12:10N 58°16' W 135°37'2 2.8
2014-Apr-20 11:33N 58°16' W 135°40'3 3.0
2014-Apr-20 10:33N 58°18' W 135°45'3 2.7
2014-Apr-20 09:28N 58°17' W 135°40'1 0.2
2014-Apr-20 02:30N 58°16' W 135°39'3 2.8
2014-Apr-20 01:32N 58°17' W 135°43'2 2.2
2014-Apr-20 00:29N 58°18' W 135°39'4 1.1
2014-Apr-19 21:15N 58°16' W 135°33'4 5.4
2014-Apr-19 20:33N 58°17' W 135°40'5 5.4
2014-Apr-19 19:33N 58°18' W 135°50'5 5.1
2014-Apr-19 18:33N 58°16' W 135°58'4 4.0
2014-Apr-19 17:33N 58°18' W 135°52'4 3.6
2014-Apr-19 16:29N 58°18' W 135°44'4 3.8
2014-Apr-19 15:30N 58°17' W 135°38'272 6.1
2014-Apr-17 19:09N 54°38' W 130°44'8 8.1
2014-Apr-17 18:11N 54°30' W 130°41'5 8.5
2014-Apr-17 17:33N 54°25' W 130°38'9 9.3
2014-Apr-17 16:33N 54°17' W 130°32'7 6.2
2014-Apr-17 15:27N 54°15' W 130°21'3 3.5
2014-Apr-17 14:32N 54°18' W 130°21'1 1.1
2014-Apr-17 13:33N 54°19' W 130°20'1 0.6
2014-Apr-17 12:32N 54°19' W 130°19'0 0.0
2014-Apr-17 11:32N 54°19' W 130°19'0 0.0
2014-Apr-17 10:29N 54°19' W 130°19'0 0.0
2014-Apr-17 09:32N 54°19' W 130°19'0 0.0
2014-Apr-17 08:32N 54°19' W 130°19'0 0.0
2014-Apr-17 07:29N 54°19' W 130°19'0 0.0
2014-Apr-17 06:32N 54°19' W 130°19'2 1.6
2014-Apr-17 05:34N 54°18' W 130°21'0 0.0
2014-Apr-17 04:34N 54°18' W 130°21'0 0.0
2014-Apr-17 03:34N 54°18' W 130°21'0 0.0
2014-Apr-17 02:34N 54°18' W 130°21'0 0.0
2014-Apr-17 01:34N 54°18' W 130°21'0 0.0
2014-Apr-17 00:34N 54°18' W 130°21'0 0.0
2014-Apr-16 23:34N 54°18' W 130°21'0 0.0
2014-Apr-16 22:33N 54°18' W 130°21'0 0.0
2014-Apr-16 21:33N 54°18' W 130°21'0 0.0
2014-Apr-16 20:34N 54°18' W 130°21'0 0.0
2014-Apr-16 19:33N 54°18' W 130°21'0 0.0
2014-Apr-16 18:34N 54°18' W 130°21'0 0.0
2014-Apr-16 17:33N 54°18' W 130°21'2 2.0
2014-Apr-16 16:33N 54°16' W 130°22'4 4.0
2014-Apr-16 15:34N 54°14' W 130°28'5 5.0
2014-Apr-16 14:33N 54°18' W 130°34'5 4.6
2014-Apr-16 13:33N 54°22' W 130°36'4 4.4
2014-Apr-16 12:33N 54°26' W 130°39'5 4.7
2014-Apr-16 11:32N 54°31' W 130°41'5 4.5
2014-Apr-16 10:23N 54°36' W 130°44'276 5.9
2014-Apr-14 11:33N 58°17' W 135°42'6 6.3
2014-Apr-14 10:34N 58°17' W 135°54'7 6.4
2014-Apr-14 09:29N 58°15' W 136°06'7 7.1
2014-Apr-14 08:31N 58°17' W 136°19'  

Dump ship's entire track history

sailing weather and tide predictions

Barbara Foss — WYL4318 — position and weather